Regional Weather Roundup
Issued by NWS Wakefield, VA

Home | Current Version | Previous Version | Graphics & Text | Print | Product List | Glossary On
Versions: 1 2 3 4 5 6 7 8 9 10 11 12 13 14 15 16 17 18 19 20 21 22 23 24 25 26 27 28 29 30 31 32 33 34 35 36 37 38 39 40 41 42 43 44 45 46 47 48 49 50
000
ASUS41 KAKQ 261715
RWRAKQ

REGIONAL WEATHER ROUNDUP
NATIONAL WEATHER SERVICE WAKEFIELD VA
100 PM EDT FRI MAY 26 2017

Note: "fair" indicates few or no clouds below 12,000 feet with no
significant weather and/or obstructions to visibility. * = Denotes
station may not report precipitation (e.g., rain,snow,etc.),
thunder or fog.

VAZ042-051-052>054-056-261800-
NORTHERN VIRGINIA

CITY           SKY/WX    TMP DP  RH WIND       PRES   REMARKS
WASH NATIONAL  PTSUNNY   75  59  57 W20G29    29.76F
DULLES         PTSUNNY   72  54  53 W18G33    29.78S
FORT BELVOIR   PTSUNNY   74  56  53 NW13G20   29.77S
QUANTICO       PTSUNNY   77  56  48 W20G29    29.78F
FREDERICKSBRG* SUNNY     76  56  49 NW17G24   29.78F
STAFFORD*      MOSUNNY   74  59  59 W10G21    29.83S
WARRENTON      CLOUDY    75  52  43 W9G20     29.79S
CULPEPER*      PTSUNNY   75  58  55 W12       29.82R
MANASSAS*      MOSUNNY   75  56  51 W21G26    29.78F
LEESBURG*      MOSUNNY   73  61  64 NW21G33   29.78S
WINCHESTER     PTSUNNY   68  54  60 W15       29.81R
FRONT ROYAL*   PTSUNNY   70  55  60 W9G17     29.81S
LURAY*         PTSUNNY   70  54  56 W13G20    29.84S
$$

VAZ048-049-060>072-079>083-261800-
CENTRAL AND SOUTH CENTRAL VIRGINIA

CITY           SKY/WX    TMP DP  RH WIND       PRES   REMARKS
RICHMOND       MOSUNNY   76  54  46 W16G28    29.82R
CHESTERFIELD*  NOT AVBL
PETERSBURG*    PTSUNNY   76  53  44 W17G23    29.85R
HANOVER        MOSUNNY   78  52  40 W16G24    29.82S
TAPPAHANNOCK*  PTSUNNY   76  51  41 W14G20    29.80S
QUINTON*       PTSUNNY   77  57  49 W8G23     29.80F
CHARLOTTSVILLE SUNNY     76  52  43 W12G22    29.82F
GORDONSVILLE*  PTSUNNY   75  54  49 W5        29.81S
ORANGE*        MOSUNNY   73  54  49 W12G22    29.81F
LOUISA*        MOSUNNY   81  59  47 W12       29.81S
BUMPASS*       FAIR      75  54  48 W8G18     29.81F
FARMVILLE*     MOSUNNY   77  44  31 SW9G16    29.85S
CREWE*         PTSUNNY   76  47  35 W7G16     29.86S
FORT PICKETT*  FAIR      75  44  32 NW17G29   29.86S
CHASE CITY*    FAIR      74  50  41 NW9G20    29.89S
CLARKSVILLE*   PTSUNNY   75  57  53 W7G16     29.89S
SOUTH HILL*    MOSUNNY   75  57  53 W9        29.94S
LAWRENCEVILLE* PTSUNNY   76  54  46 W9G20     29.87S
EMPORIA*       MOSUNNY   73  54  49 W12G18    29.88S
$$

VAZ088>098-261800-
SOUTHEAST VIRGINIA

CITY           SKY/WX    TMP DP  RH WIND       PRES   REMARKS
NORFOLK        SUNNY     78  57  48 W9G23     29.81S
VIRGINIA BEACH MOSUNNY   78  57  48 W13       29.80S
NORFOLK NAVAL  NOT AVBL
WEST POINT*    PTSUNNY   76  54  45 W13       29.81F
SALUDA*        PTSUNNY   77  59  54 W10G20    29.79S
NEWPORT NEWS   SUNNY     77  57  50 W14G24    29.82R
LANGLEY AFB    MOSUNNY   76  58  52 W17G26    29.80R
FORT EUSTIS    SUNNY     78  58  49 NW13      29.80R
WILLIAMSBURG*  SUNNY     81  57  44 NW12G23   29.82S
HR EXEC AP*    FAIR      79  57  47 W12G22    29.81S
FRANKLIN*      MOSUNNY   77  56  47 W16       29.85R
US460-WAKEFLD  MOSUNNY   78  56  46 NW9G24    29.83S
$$

VAZ020-022-025-037-045-261800-
WEST CENTRAL AND SOUTHWEST VIRGINIA

CITY           SKY/WX    TMP DP  RH WIND       PRES   REMARKS
STAUNTON*      PTSUNNY   70  51  50 W12       29.88S
WAYNESBORO*    CLOUDY    68  52  55 W13G22    29.88S
HOT SPRINGS VA CLOUDY    59  41  51 W22G33    29.95S
LYNCHBURG      PTSUNNY   73  51  46 W10G18    29.90S
DANVILLE       MOSUNNY   76  55  48 NW13G23   29.91S
SOUTH BOSTON*  FAIR      77  52  41 W13G20    29.89F
MARTINSVILLE   MOSUNNY   75  53  46 NW7       29.95F
ROANOKE        MOSUNNY   72  50  45 W13G31    29.93R
BLACKSBURG     MOSUNNY   69  51  53 W12G20    29.99R
DUBLIN*        PTSUNNY   71  45  39 W14G22    29.99R
MARION*        PTSUNNY   68  50  52 CALM      30.03R
HILLSVILLE*    PTSUNNY   66  45  46 W9G24     29.99R
RICHLANDS*     FAIR      65  44  46 NW10      30.03S
WISE*            N/A     68  48  49 CALM      30.06R
ABINGDON*      SUNNY     70  54  56 W13G18    30.03R
$$

MDZ021>025-VAZ099-100-261800-
SOUTHERN MARYLAND AND THE DELMARVA PENINSULA

CITY           SKY/WX    TMP DP  RH WIND       PRES   REMARKS
PATUXENT RIVER PTSUNNY   75  61  61 W16G24    29.77R
BAY BRIDGE APT CLOUDY    72  59  64 W13       29.74S
LEONARDTOWN    PTSUNNY   73  57  56 W12G22    29.79S
DOVER          MOSUNNY   73  66  78 SW18G26   29.68F
GEORGETOWN     PTSUNNY   76  55  48 W17G28    29.72S
EASTON         PTSUNNY   75  57  53 NW16G22   29.78R
CAMBRIDGE      PTSUNNY   73  59  60 W14G24    29.75R
SALISBURY      PTSUNNY   75  58  55 W14G25    29.74R
OCEAN CITY     PTSUNNY   72  57  59 W12G21    29.74R
WALLOPS ISLAND PTSUNNY   75  59  57 W15G24    29.76S
ACCOMACK*      SUNNY     77  18  11 W15       29.78S
$$

NCZ012>017-030>032-261800-
NORTH CENTRAL AND EASTERN NORTH CAROLINA

CITY           SKY/WX    TMP DP  RH WIND       PRES   REMARKS
ROANOKE RAPIDS FAIR      77  55  47 W10G16    29.88F
RALEIGH        MOSUNNY   77  55  46 W9G23     29.92F
ELIZABETH CITY SUNNY     79  60  52 W20G25    29.83F
AHOSKIE*         N/A     75  55  49 W5        29.87R
EDENTON*       MOSUNNY   80  57  44 W12G22    29.86S
CURRITUCK*     SUNNY     78  56  47 W15G23    29.83S
KILL DEVIL HLS SUNNY     76  56  50 W12G22    29.83F
MANTEO         SUNNY     75  56  50 W14G20    29.85F
CAPE HATTERAS  SUNNY     78  58  49 W15G23    29.88S
TARBORO*       NOT AVBL
GOLDSBORO      MOSUNNY   80  54  41 W13G24    29.89F
WASHINGTON     SUNNY     78  55  45 W14G23    29.88F
GREENVILLE     SUNNY     79  54  41 NW16G22   29.92S
NEW BERN       MOSUNNY   80  57  45 W14G22    29.91S
WILMINGTON     SUNNY     81  55  40 NW15      29.92F
$$

VAZ048-261800-
ELSEWHERE

CITY           SKY/WX    TMP DP  RH WIND       PRES   REMARKS
HARRISBURG PA  CLOUDY    70  56  61 W18G26    29.69R
BALTIMORE      PTSUNNY   69  57  65 W24G30    29.73S
ANNAPOLIS      CLOUDY    74  58  57 W14G25    29.74S
ANDREWS AFB    PTSUNNY   73  57  56 NW13G22   29.76F
PHILADELPHIA   MOSUNNY   74  55  51 W13G25    29.66S
HENDERSON NC   MOSUNNY   71  54  54 W8G18     29.91S
GREENSBORO     PTSUNNY   76  55  48 W15       29.94S
ROCKY MOUNT    MOSUNNY   78  56  46 W12G22    29.90S
$$

VAZ100-261800-
MARINE

STATION/POSITION TIME  TEMP    WIND        PRES    WAVE   SWELL
                       AIR SEA DIR/SP/G            HT/PER HT/PER
                 (UTC) (F)     (DEG/KT/KT) (MB)    (FT/S) (FT/S)
CAPE MAY NJ      1648   69 63  290/ 15/ 20 1005.4S
LEWES DE         1648   70 63  300/ 23/ 28 1005.6F
15NM E FENWICK I 1550   63 58  280/  8/  8 1006.6    4/ 8   3/ 8
WACHAPREAGUE VA  1648   76 69  250/  8/ 16 1007.9R
THOMAS POINT MD  1700   70 64  280/ 19/ 23   N/A
GOOSES REEF MD   1650   69     290/ 17/ 23 1008.5F
COVE POINT MD    1648   70     320/ 12/ 22 1008.5R
SOLOMONS ISLAND  1648   72 67  270/ 10/ 15   N/A
BISHOPS HEAD MD  1648   71 70  290/ 20/ 25 1008.6R
PINEY POINT MD   1642          320/ 13/ 14   N/A
POTOMAC MD       1650   71     310/ 16/ 17 1007.6R
CAMBRIDGE MD     1642   75 69                N/A
LEWISETTA VA     1648   73 68  310/ 14/ 17 1008.4R
RAPPAHANNOCK LGT 1648          270/ 11/ 12 1009.3R
STINGRAY PT      1650   72     320/ 14/ 16 1009.5R
YORK RVR RNG VA  1648   73     280/ 16/ 19 1008.4R
YORKTOWN VA      1648   75 68  280/ 16/ 21 1009.0R
JAMESTOWN VA     1650   73     290/ 16/ 19   N/A
DOMINION TERM VA 1648   73     290/ 11/ 14 1009.7R
KIPTOPEKE VA     1648      67  280/  9/ 10   N/A
CHES BAY BRIDGE  1648   72 67  280/ 14/ 15 1009.2S
CAPE HENRY VA    1648   75     270/ 11/ 17   N/A
WILLOUBY STN VA  1648   73     270/ 16/ 17 1009.1F
S CRANEY ISL VA  1648   77     270/  9/ 17 1009.3F
CAPE HENRY BUOY  1642      63                N/A     3/ 8
1ST LANDING BUOY 1650   72                 1009.3S
CAPE CHARLES BUO 1651      62                N/A     2/ 3
64NM E OF VA BCH 1650   64 61  260/ 12/ 12 1009.9R   6/ 7   5/ 7
DUCK PIER NC     1648   74 63  270/ 18/ 22 1009.7F
44100 DUCK FRF   1605      63                N/A     3/ 8
44056 DUCK FRF   1630      62                N/A     2/ 8
OREGON INLET NC  1642   75 71  270/ 11/ 18 1010.5F
HATTERAS NC      1648   74 71  270/ 20/ 24 1011.5F
DIAMOND SHLS NC  1650   74 79  280/ 19/ 23 1011.8S   8/ 8
CAPE LOOKOUT NC  1700   76     250/ 14/ 18 1012.4F
$$



USA.gov is the U.S. government's official web portal to all federal, state and local government web resources and services.